Home > Weather > Canada > Pond Inlet > Past weeks

Flag for Canada Weather past 2 weeks in Pond Inlet, Nunavut, Canada

-18 °F

Scattered clouds.

Feels Like: -31 °F
Forecast: N/A
Wind: 5 mph from South

Location: Pond Inlet

Current Time: Dec 1, 2015 at 4:10:40 PM

Latest Report: Dec 1, 2015 at 3:00 PM

Visibility: 40 mi

Pressure: 29.64 "Hg

Humidity: 69%

Dew point: -26 °F

Location of Pond InletLocation

Historic Weather in Pond Inlet — Graph


Pond Inlet temperature yesterday

Maximum temperature yesterday: -8 °F (at 11:00 PM)
Minimum temperature yesterday: -24 °F (at 2:48 AM)
Average temperature yesterday: -20 °F

Past Weeks' High & Low Weather Summary

High27 °F (Nov 19, 12:00 AM)100% (Nov 18, 9:00 AM)30.35 "Hg (Nov 18, 9:00 AM)
Low-31 °F (Nov 27, 5:00 PM)58% (Dec 1, 2:00 AM)29.04 "Hg (Nov 19, 1:00 AM)
Average-9 °F78%29.74 "Hg
* Reported Nov 16 3:00 PM — Dec 1 3:00 PM, Pond Inlet, Weather by CustomWeather, © 2015

Note: Actual official high and low records may vary slightly from our data, if they occured in-between our weather recording intervals... More about our weather records


Pond Inlet weather history for previous 24 hours

Time TempWeatherWind HumidityBarometerVisibility
3:00 PM
Tue, Dec 1
-18 °FScattered clouds.5 mph69%29.64 "Hg40 mi
2:00 PM-18 °FScattered clouds.3 mph75%29.63 "Hg40 mi
1:00 PM-20 °FScattered clouds.5 mph75%29.62 "Hg40 mi
12:00 PM-20 °FScattered clouds.10 mph75%29.61 "Hg40 mi
11:00 AM-22 °FScattered clouds.9 mph75%29.60 "Hg35 mi
10:00 AM-18 °FSunny.8 mph69%29.60 "Hg9 mi
9:00 AM-20 °FSunny.5 mph75%29.60 "Hg9 mi
8:00 AM-17 °FScattered clouds.7 mph69%29.59 "Hg9 mi
7:00 AM-9 °FOvercast.3 mph64%29.59 "Hg9 mi
6:00 AM-6 °FOvercast.2 mph59%29.59 "Hg9 mi
5:00 AM-6 °FOvercast.6 mph59%29.58 "Hg9 mi
4:00 AM-8 °FOvercast.8 mph64%29.57 "Hg9 mi
3:00 AM-8 °FOvercast.7 mph64%29.56 "Hg9 mi
2:00 AM-8 °FOvercast.2 mph58%29.56 "Hg9 mi
1:00 AM-8 °FOvercast.6 mph64%29.56 "Hg9 mi
12:00 AM-8 °FOvercast.5 mph70%29.56 "Hg9 mi
11:00 PM
Mon, Nov 30
-8 °FOvercast.7 mph77%29.55 "Hg9 mi
10:00 PM-9 °FOvercast.3 mph84%29.55 "Hg9 mi
9:00 PM-17 °FOvercast.3 mph76%29.56 "Hg9 mi
8:00 PM-17 °FPassing clouds.2 mph83%29.57 "Hg9 mi
7:00 PM-18 °FPassing clouds.6 mph75%29.57 "Hg8 mi
6:00 PM-20 °FLight snow. Partly sunny.6 mph75%29.58 "Hg15 mi
5:00 PM-22 °FPartly sunny.7 mph75%29.59 "Hg15 mi
4:00 PM-22 °FLight snow. Overcast.6 mph75%29.59 "Hg15 mi
Weather by CustomWeather, © 2015

See weather overviewHow to use our weather pages